N930DX SCEL-SCTL

Flight info

Callsign N930DX
Flight time 0h 30m
Altitude 15000
Route N0287F150 ANGO6C ANGOD V551 ICO/VFR DCT
Aircraft TBM9/L-SDGRY/LB1

Departure

Time 2026-05-04 18:16
Airport Comodoro Arturo Merino Benítez International Airport (SCEL)

Arrival

Time 2026-05-04 18:46
Airport Panguilemo Airport (SCTL)
Time Latitude Longitude Altitude Speed Heading
2026-05-04 18:08 -33.39220 -70.79204 1581 ft 0 kts
2026-05-04 18:12 -33.39208 -70.79187 1559 ft 9 kts 90°
2026-05-04 18:12 -33.39251 -70.79141 1559 ft 11 kts 176°
2026-05-04 18:12 -33.39335 -70.79140 1559 ft 12 kts 182°
2026-05-04 18:12 -33.39403 -70.79104 1559 ft 14 kts 86°
2026-05-04 18:13 -33.39399 -70.78944 1559 ft 22 kts 92°
2026-05-04 18:13 -33.39340 -70.78793 1559 ft 22 kts 31°
2026-05-04 18:13 -33.39081 -70.78611 1559 ft 15 kts 90°
2026-05-04 18:14 -33.39097 -70.78590 1559 ft 0 kts 179°
2026-05-04 18:15 -33.39098 -70.78590 1559 ft 4 kts 178°
2026-05-04 18:15 -33.40033 -70.78538 1757 ft 110 kts 175°
2026-05-04 18:15 -33.40849 -70.78500 2129 ft 137 kts 175°
2026-05-04 18:16 -33.41832 -70.78420 2645 ft 148 kts 177°
2026-05-04 18:16 -33.42914 -70.78364 3137 ft 161 kts 179°
2026-05-04 18:16 -33.44096 -70.78292 3628 ft 177 kts 178°
2026-05-04 18:17 -33.46728 -70.78141 4624 ft 198 kts 177°
2026-05-04 18:17 -33.48127 -70.78056 5107 ft 208 kts 177°
2026-05-04 18:17 -33.51105 -70.77883 6104 ft 220 kts 178°
2026-05-04 18:18 -33.52655 -70.77782 6604 ft 223 kts 178°
2026-05-04 18:18 -33.54192 -70.77864 7067 ft 226 kts 194°
2026-05-04 18:18 -33.55725 -70.78330 7547 ft 228 kts 196°
2026-05-04 18:18 -33.57294 -70.78757 8037 ft 233 kts 195°
2026-05-04 18:19 -33.60442 -70.79698 9012 ft 235 kts 199°
2026-05-04 18:19 -33.62047 -70.80178 9523 ft 239 kts 198°
2026-05-04 18:19 -33.63640 -70.80662 10017 ft 239 kts 199°
2026-05-04 18:20 -33.65258 -70.81165 10485 ft 240 kts 199°
2026-05-04 18:20 -33.66881 -70.81672 10963 ft 242 kts 199°
2026-05-04 18:20 -33.68517 -70.82179 11439 ft 242 kts 200°
2026-05-04 18:20 -33.70150 -70.82690 11928 ft 242 kts 200°
2026-05-04 18:21 -33.71764 -70.83192 12419 ft 244 kts 200°
2026-05-04 18:21 -33.73401 -70.83698 12911 ft 242 kts 200°
2026-05-04 18:21 -33.75033 -70.84208 13425 ft 242 kts 201°
2026-05-04 18:21 -33.76666 -70.84717 13928 ft 242 kts 201°
2026-05-04 18:22 -33.78299 -70.85226 14394 ft 242 kts 201°
2026-05-04 18:22 -33.79931 -70.85734 14852 ft 242 kts 201°
2026-05-04 18:22 -33.81605 -70.86263 14999 ft 257 kts 201°
2026-05-04 18:22 -33.83375 -70.86825 15010 ft 272 kts 201°
2026-05-04 18:23 -33.85247 -70.87412 15014 ft 280 kts 201°
2026-05-04 18:23 -33.87157 -70.88004 15014 ft 284 kts 200°
2026-05-04 18:23 -33.89064 -70.88595 15013 ft 286 kts 200°
2026-05-04 18:23 -33.90980 -70.89193 15009 ft 282 kts 201°
2026-05-04 18:24 -33.92878 -70.89784 15027 ft 279 kts 201°
2026-05-04 18:24 -33.94764 -70.90373 15030 ft 278 kts 201°
2026-05-04 18:24 -33.96614 -70.90952 15029 ft 276 kts 201°
2026-05-04 18:24 -33.98482 -70.91537 15032 ft 276 kts 201°
2026-05-04 18:25 -34.00347 -70.92123 15034 ft 278 kts 201°
2026-05-04 18:25 -34.02219 -70.92704 15026 ft 277 kts 202°
2026-05-04 18:25 -34.04089 -70.93273 15036 ft 276 kts 200°
2026-05-04 18:25 -34.05939 -70.93828 15038 ft 278 kts 200°
2026-05-04 18:26 -34.07820 -70.94395 15040 ft 278 kts 200°
2026-05-04 18:26 -34.09704 -70.94965 15041 ft 279 kts 200°
2026-05-04 18:26 -34.11596 -70.95540 15034 ft 278 kts 200°
2026-05-04 18:26 -34.13458 -70.96101 15034 ft 278 kts 200°
2026-05-04 18:27 -34.15336 -70.96669 15034 ft 277 kts 201°
2026-05-04 18:27 -34.17218 -70.97241 15042 ft 278 kts 201°
2026-05-04 18:27 -34.19108 -70.97817 15034 ft 278 kts 201°
2026-05-04 18:27 -34.20963 -70.98377 15033 ft 278 kts 201°
2026-05-04 18:28 -34.22845 -70.98947 15037 ft 278 kts 201°
2026-05-04 18:28 -34.24706 -70.99513 15035 ft 277 kts 201°
2026-05-04 18:28 -34.26591 -71.00088 15035 ft 277 kts 201°
2026-05-04 18:28 -34.28470 -71.00659 15036 ft 277 kts 201°
2026-05-04 18:29 -34.30319 -71.01221 15036 ft 277 kts 201°
2026-05-04 18:29 -34.32210 -71.01796 15039 ft 278 kts 201°
2026-05-04 18:29 -34.34070 -71.02362 15035 ft 278 kts 201°
2026-05-04 18:29 -34.35951 -71.02935 15033 ft 278 kts 201°
2026-05-04 18:30 -34.39687 -71.04073 15037 ft 277 kts 201°
2026-05-04 18:30 -34.41569 -71.04647 15035 ft 277 kts 201°
2026-05-04 18:30 -34.43423 -71.05214 15040 ft 278 kts 201°
2026-05-04 18:31 -34.45301 -71.05786 15036 ft 277 kts 201°
2026-05-04 18:31 -34.47185 -71.06362 15036 ft 277 kts 201°
2026-05-04 18:31 -34.49040 -71.06929 15037 ft 277 kts 201°
2026-05-04 18:31 -34.50915 -71.07502 15036 ft 277 kts 201°
2026-05-04 18:32 -34.52767 -71.08068 15035 ft 277 kts 201°
2026-05-04 18:32 -34.54645 -71.08644 15038 ft 277 kts 201°
2026-05-04 18:32 -34.56523 -71.09219 15032 ft 277 kts 201°
2026-05-04 18:32 -34.58377 -71.09785 15032 ft 276 kts 201°
2026-05-04 18:33 -34.60252 -71.10358 15034 ft 276 kts 201°
2026-05-04 18:33 -34.62107 -71.10930 15030 ft 277 kts 202°
2026-05-04 18:33 -34.63983 -71.11506 15032 ft 277 kts 202°
2026-05-04 18:33 -34.65842 -71.12075 15032 ft 276 kts 202°
2026-05-04 18:34 -34.67702 -71.12646 15035 ft 276 kts 202°
2026-05-04 18:34 -34.69557 -71.13215 15037 ft 277 kts 202°
2026-05-04 18:34 -34.71438 -71.13794 15033 ft 277 kts 202°
2026-05-04 18:34 -34.73299 -71.14366 15036 ft 277 kts 202°
2026-05-04 18:35 -34.75173 -71.14942 15039 ft 278 kts 202°
2026-05-04 18:35 -34.77042 -71.15518 15033 ft 278 kts 202°
2026-05-04 18:35 -34.78923 -71.16098 15033 ft 277 kts 202°
2026-05-04 18:35 -34.80784 -71.16671 15029 ft 276 kts 202°
2026-05-04 18:36 -34.82626 -71.17236 15035 ft 276 kts 202°
2026-05-04 18:36 -34.84500 -71.17813 15034 ft 276 kts 202°
2026-05-04 18:36 -34.86350 -71.18385 15034 ft 276 kts 202°
2026-05-04 18:36 -34.88217 -71.18962 15036 ft 275 kts 202°
2026-05-04 18:37 -34.90068 -71.19533 15034 ft 275 kts 202°
2026-05-04 18:37 -34.91913 -71.20102 15036 ft 275 kts 202°
2026-05-04 18:37 -34.93770 -71.20676 15035 ft 275 kts 202°
2026-05-04 18:37 -34.95623 -71.21266 15037 ft 273 kts 205°
2026-05-04 18:38 -34.97300 -71.22190 15040 ft 264 kts 219°
2026-05-04 18:38 -34.98807 -71.23515 14678 ft 268 kts 227°
2026-05-04 18:38 -35.00303 -71.24939 14307 ft 275 kts 225°
2026-05-04 18:38 -35.01825 -71.26346 13942 ft 278 kts 225°
2026-05-04 18:39 -35.03357 -71.27769 13548 ft 279 kts 225°
2026-05-04 18:39 -35.04904 -71.29220 13136 ft 280 kts 225°
2026-05-04 18:39 -35.06438 -71.30660 12731 ft 280 kts 225°
2026-05-04 18:39 -35.07976 -71.32099 12293 ft 274 kts 225°
2026-05-04 18:40 -35.09499 -71.33523 11846 ft 274 kts 225°
2026-05-04 18:40 -35.10995 -71.34928 11407 ft 274 kts 225°
2026-05-04 18:40 -35.12510 -71.36353 10968 ft 273 kts 225°
2026-05-04 18:40 -35.14021 -71.37774 10530 ft 273 kts 224°
2026-05-04 18:41 -35.15495 -71.39152 10042 ft 264 kts 224°
2026-05-04 18:41 -35.16951 -71.40516 9482 ft 262 kts 224°
2026-05-04 18:41 -35.18396 -71.41883 8919 ft 261 kts 224°
2026-05-04 18:41 -35.19812 -71.43215 8374 ft 258 kts 224°
2026-05-04 18:42 -35.21233 -71.44549 7829 ft 254 kts 223°
2026-05-04 18:42 -35.22634 -71.45868 7289 ft 252 kts 223°
2026-05-04 18:42 -35.24005 -71.47160 6763 ft 250 kts 222°
2026-05-04 18:42 -35.25372 -71.48446 6229 ft 242 kts 221°
2026-05-04 18:43 -35.26672 -71.49676 5679 ft 235 kts 221°
2026-05-04 18:43 -35.27954 -71.50845 5058 ft 224 kts 217°
2026-05-04 18:43 -35.29232 -71.51881 4548 ft 212 kts 217°
2026-05-04 18:43 -35.30421 -71.52881 3979 ft 207 kts 218°
2026-05-04 18:44 -35.31537 -71.53945 3532 ft 198 kts 221°
2026-05-04 18:44 -35.31879 -71.54294 3390 ft 196 kts 222°
2026-05-04 18:44 -35.33537 -71.55996 2550 ft 176 kts 218°
2026-05-04 18:44 -35.34494 -71.56889 1992 ft 169 kts 220°
2026-05-04 18:45 -35.35381 -71.57791 1370 ft 165 kts 219°
2026-05-04 18:45 -35.36265 -71.58669 797 ft 160 kts 219°
2026-05-04 18:45 -35.37005 -71.59396 519 ft 108 kts 218°
2026-05-04 18:45 -35.37499 -71.59881 381 ft 76 kts 218°
2026-05-04 18:46 -35.37786 -71.60162 376 ft 28 kts 217°
2026-05-04 18:46 -35.37904 -71.60294 376 ft 14 kts 250°
2026-05-04 18:46 -35.37908 -71.60348 377 ft 0 kts 310°
2026-05-04 18:46 -35.37907 -71.60350 377 ft 0 kts 313°